Flint, MI

12:20 PM EST on February 26, 2017 (GMT -0500)
Bishop International

Weather History for KFNT - February, 2013

Change the Weather History Date:

Friday, February 15, 2013

  Actual Average Record
Temperature  
Mean Temperature 26 °F 25 °F  
Max Temperature 32 °F 33 °F 62 °F (1954)
Min Temperature 20 °F 17 °F -17 °F (2015)
Degree Days  
Heating Degree Days 39 40  
Month to date heating degree days 630 622  
Since 1 July heating degree days 4163 4586  
Cooling Degree Days 0 0  
Month to date cooling degree days 0 0  
Year to date cooling degree days 0 0  
Moisture  
Dew Point 17 °F    
Average Humidity 63    
Maximum Humidity 75    
Minimum Humidity 50    
Precipitation  
Precipitation T in 0.05 in 0.55 in (1992)
Month to date precipitation 0.54 0.74  
Year to date precipitation 4.44 2.37  
Snow  
Snow 0.10 in 0.40 in 4.60 in (1975)
Month to date snowfall 8.6 6.0  
Since 1 July snowfall 30.3 33.8  
Snow Depth T in    
Sea Level Pressure  
Sea Level Pressure 30.01 in    
Wind  
Wind Speed 12 mph (WNW)    
Max Wind Speed 23 mph    
Max Gust Speed 30 mph    
Visibility 10 miles    
Events Snow    
T = Trace of Precipitation, MM = Missing Value Source: NWS Daily Summary

Daily Weather History Graph

Daily Weather History Graph

Search for Another Location

Airport or City:

Trip Planner

Search our weather history database for the weather conditions in past years. The results will help you decide how hot, cold, wet, or windy it might be!

Date:

Astronomy

Feb. 15, 2013 Rise Set
Actual Time 7:32 AM EST 6:06 PM EST
Civil Twilight 7:02 AM EST 6:35 PM EST
Nautical Twilight 6:29 AM EST 7:09 PM EST
Astronomical Twilight 5:56 AM EST 7:41 PM EST
Moon 9:57 AM EST (2/15) No Moon Set
Length of Visible Light 11h 32m
Length of Day
10h 34m
Waxing Crescent, 30% of the Moon is Illuminated
Feb 15
Waxing Crescent
Feb 17
First Quarter
Feb 25
Full
Mar 4
Last Quarter
Mar 11
New

Hourly Weather History & Observations

Time (EST) Temp. Windchill Dew Point Humidity Pressure Visibility Wind Dir Wind Speed Gust Speed Precip Events Conditions
12:04 AM 32.0 °F 20.1 °F 24.8 °F 75% 29.83 in 10.0 mi WNW 19.6 mph 29.9 mph N/A   Overcast
12:15 AM 32.0 °F 20.5 °F 24.8 °F 75% 29.83 in 10.0 mi WNW 18.4 mph 26.5 mph N/A   Overcast
12:24 AM 30.2 °F 17.1 °F 23.0 °F 75% 29.83 in 10.0 mi WNW 21.9 mph 27.6 mph N/A   Overcast
12:53 AM 30.0 °F 19.1 °F 21.9 °F 72% 29.87 in 10.0 mi WNW 15.0 mph - N/A   Mostly Cloudy
1:17 AM 30.2 °F 19.3 °F 21.2 °F 69% 29.85 in 10.0 mi NW 15.0 mph - N/A   Overcast
1:53 AM 30.0 °F 19.1 °F 21.9 °F 72% 29.88 in 10.0 mi WNW 15.0 mph 21.9 mph N/A   Mostly Cloudy
2:06 AM 28.4 °F 18.0 °F 21.2 °F 74% 29.86 in 10.0 mi WNW 12.7 mph - N/A   Scattered Clouds
2:53 AM 28.9 °F 19.2 °F 21.0 °F 72% 29.90 in 10.0 mi WNW 11.5 mph - N/A   Mostly Cloudy
3:32 AM 26.6 °F 15.2 °F 19.4 °F 74% 29.89 in 10.0 mi WNW 13.8 mph - N/A   Scattered Clouds
3:53 AM 26.1 °F 14.5 °F 19.0 °F 75% 29.92 in 10.0 mi WNW 13.8 mph - N/A   Scattered Clouds
4:53 AM 26.1 °F 15.0 °F 18.0 °F 71% 29.95 in 10.0 mi West 12.7 mph - N/A   Overcast
5:01 AM 26.6 °F 15.7 °F 17.6 °F 69% 29.93 in 10.0 mi WNW 12.7 mph - N/A   Overcast
5:14 AM 24.8 °F 11.9 °F 17.6 °F 74% 29.94 in 10.0 mi WNW 16.1 mph 23.0 mph N/A   Overcast
5:22 AM 24.8 °F 11.9 °F 17.6 °F 74% 29.94 in 10.0 mi WNW 16.1 mph - N/A   Overcast
5:53 AM 26.1 °F 14.5 °F 17.1 °F 69% 29.98 in 10.0 mi WNW 13.8 mph - N/A   Overcast
6:13 AM 24.8 °F 12.4 °F 15.8 °F 69% 29.96 in 10.0 mi WNW 15.0 mph 21.9 mph N/A   Scattered Clouds
6:53 AM 24.1 °F 14.4 °F 16.0 °F 71% 30.00 in 10.0 mi WNW 9.2 mph - N/A   Partly Cloudy
7:53 AM 24.1 °F 12.5 °F 15.1 °F 69% 30.02 in 10.0 mi West 12.7 mph - N/A   Overcast
8:53 AM 25.0 °F 11.7 °F 15.1 °F 66% 30.05 in 10.0 mi WNW 17.3 mph - N/A   Partly Cloudy
9:53 AM 26.1 °F 14.0 °F 14.0 °F 60% 30.06 in 10.0 mi NW 15.0 mph - N/A   Scattered Clouds
10:53 AM 26.1 °F 12.7 °F 12.9 °F 58% 30.07 in 10.0 mi WNW 18.4 mph 25.3 mph N/A   Overcast
11:53 AM 27.0 °F 16.1 °F 12.0 °F 53% 30.08 in 10.0 mi WNW 12.7 mph - N/A   Overcast
12:53 PM 28.0 °F 17.5 °F 12.9 °F 53% 30.08 in 10.0 mi West 12.7 mph - N/A   Overcast
1:53 PM 27.0 °F 15.6 °F 12.0 °F 53% 30.08 in 10.0 mi West 13.8 mph - N/A   Overcast
2:53 PM 27.0 °F 15.2 °F 12.0 °F 53% 30.08 in 10.0 mi West 15.0 mph - N/A   Overcast
3:53 PM 27.0 °F 15.6 °F 12.0 °F 53% 30.09 in 10.0 mi WNW 13.8 mph - N/A   Overcast
4:53 PM 27.0 °F 16.1 °F 12.9 °F 56% 30.10 in 10.0 mi WNW 12.7 mph - N/A   Overcast
5:53 PM 27.0 °F 18.0 °F 12.9 °F 56% 30.11 in 10.0 mi WNW 9.2 mph - N/A   Overcast
6:53 PM 26.1 °F 16.8 °F 14.0 °F 60% 30.12 in 10.0 mi WNW 9.2 mph - N/A   Overcast
7:53 PM 26.1 °F 16.8 °F 16.0 °F 66% 30.12 in 9.0 mi WNW 9.2 mph - 0.00 in Snow Light Snow
8:43 PM 26.6 °F 19.1 °F 17.6 °F 69% 30.09 in 4.0 mi WNW 6.9 mph - 0.00 in Snow Light Snow
8:53 PM 26.1 °F 20.5 °F 17.1 °F 69% 30.13 in 9.0 mi WNW 4.6 mph - 0.00 in   Overcast
9:20 PM 24.8 °F 11.5 °F 17.6 °F 74% 30.10 in 4.0 mi West 17.3 mph 23.0 mph 0.00 in Snow Light Snow
9:53 PM 24.1 °F 13.1 °F 14.0 °F 65% 30.14 in 6.0 mi WNW 11.5 mph 23.0 mph 0.00 in Snow Light Snow
10:01 PM 24.8 °F 11.9 °F 14.0 °F 64% 30.10 in 9.0 mi WNW 16.1 mph - 0.00 in   Overcast
10:53 PM 24.1 °F 12.0 °F 14.0 °F 65% 30.13 in 10.0 mi WNW 13.8 mph - 0.00 in   Overcast
11:53 PM 19.9 °F 11.1 °F 12.9 °F 74% 30.12 in 10.0 mi West 6.9 mph - N/A   Partly Cloudy